LiveATC.Net - Listen to live air traffic control over the Internet!

ICAO: LZKZ  IATA: KSC   Airport: Kosice International Airport
City: Kosice
Country: Slovakia   Continent: Europe
LZKZ METAR Weather: LZKZ 240130Z 05006KT CAVOK M01/M08 Q1004
LZKZ Flight Activity (FlightAware)
LZKZ Gnd/Twr/App
Feed Status: UP   Listeners: 0
Listen right in your browser - requires Flash (in browser, requires Flash)
Click here to listen with your own player (launches your MP3 player)
Kosice Approach119.850
Kosice Ground121.700
Kosice Handling131.850
Kosice Tower120.400


Unauthorized use prohibited. See Terms of Service

Find LiveATC Audio Streams

Airport/ARTCC Code

Frequency Search
(e.g., 124.400, 128.75)
Site-wide search

Browse LiveATC Feeds
LiveATC Coverage Map
Top 50 LiveATC Feeds
Bad Weather Areas

Offer a LiveATC Feed
Press Inquiries

LiveATC on iPhone
LiveATC on Android

Windows Phone
Windows 8/10

LiveATC Mobile
(Mobile browser)

ATC Audio Archives
Interesting Recordings

LiveATC Forums

Home Page
Make a Donation
Terms of Use
Privacy Policy

Canadian Air Freqs


FAA Airport Status
Nat'l Airspace Status
Arrival Demand Charts

Server Software By: